Station: Nuernberg, ICAO: EDDN, Synop: Synop: 10763,
Koordinaten: 4930'00''N 01103'00''E, Hoehe: 318m, Entfernung: 13.33km
2018/01/18 13:20
EDDN 181320Z 25029G44KT 9999 FEW022 BKN027 09/03 Q0996 R28/29//95 NOSIG


Station: FEUCHT (USA-AF), ICAO: EDIG, Synop: Synop: 10764,
Koordinaten: 49 23 N 011 11 E, Hoehe: 386m, Entfernung: 29.43km


Station: Ansbach / Katterbach, ICAO: ETEB, Synop: Synop: 10755,
Koordinaten: 4919'00''N 01038'00''E, Hoehe: 467m, Entfernung: 39.64km
2018/01/18 13:25
ETEB 181325Z AUTO 25036G47KT 9999 SQ BKN032 07/03 A2945 RMK AO2 SLP000 $


Station: Illesheim, ICAO: ETIK, Synop: Synop: 10752,
Koordinaten: 4928'00''N 01023'00''E, Hoehe: 325m, Entfernung: 44.19km
2018/01/18 13:46
ETIK 181346Z AUTO 28018G35KT 6000 RA BR BKN025 BKN031 BKN047 BKN060 08/06 A2948 RMK AO2 RAB31 CIG 025V032 PRESRR SLP994 $


Station: ILLESHEIM (USAF), ICAO: EDIK, Synop: Synop: 10752,
Koordinaten: 49 28 N 010 23 E, Hoehe: 325m, Entfernung: 44.19km


Station: Roth, ICAO: ETHR, Synop: Synop: 10765,
Koordinaten: 4913'00''N 01106'00''E, Hoehe: 388m, Entfernung: 44.26km
2013/12/05 06:53
ETHR 050653Z 25004KT 1200 BR OVC003 02/02 Q1027 AMB


mehr Wetter
WetterInfo - adds.pl 2.6.003 DL3EL © 2004-2017 [158063]